{"data":{"norad_id":67037,"epoch":"2026-09-20T14:07:31.629792Z","epoch_age_seconds":74040,"freshness":"FRESH","line1":"1 67037U 25294H   26263.58856053  .00012408  00000+0  45951-3 0  9995","line2":"2 67037  43.0022  17.6308 0001427 262.4736  97.5954 15.27589708 44600","mean_motion":15.27589708,"eccentricity":0.0001427,"inclination_deg":43.0022,"raan_deg":17.6308,"arg_perigee_deg":262.4736,"mean_anomaly_deg":97.5954,"bstar":0.00045951,"rev_number":4460,"period_min":94.266149638133,"perigee_km":482.04093984142,"apogee_km":483.99911405691,"semimajor_km":6861.1570269492,"source":"CELESTRAK","updated_at":"2026-09-21T09:00:36.092428Z"}}